Updated 18-Jan-2024. Data version 1.1, RHmax=100,Scatmax=2500 
Year,Month,Day,Hour,Temp_degC,Pressure,%RH,Back_Scat_Red,Back_Scat_Green,Back_Scat_Blue,Total_Scat_Red,Total_Scat_Green,Total_Scat_Blue
2019, 04, 03, 16,   33.4,  86.18,     26,    1.3,    1.5,    1.8,   7.1,   9.2,   12.3
2019, 04, 03, 17,   30.8,  86.17,     30,    1.2,    1.4,    1.8,   6.2,   7.9,   10.8
2019, 04, 03, 18,   25.1,  86.10,     41,    1.9,    2.2,    2.8,   9.6,  12.1,   16.3
2019, 04, 03, 19,   22.2,  86.08,     48,    2.4,    2.7,    3.6,  13.2,  16.5,   22.3
2019, 04, 03, 20,   21.0,  86.10,     54,    2.5,    2.8,    3.8,  14.6,  18.1,   24.1
2019, 04, 03, 21,   19.7,  86.11,     63,    2.1,    2.3,    3.2,  11.4,  13.7,   18.4
2019, 04, 03, 22,   18.4,  86.08,     70,    2.1,    2.4,    3.3,  10.2,  12.0,   16.0
2019, 04, 03, 23,   17.5,  86.02,     74,    1.8,    2.1,    2.9,   7.5,   8.8,   12.2
2019, 04, 04, 00,   16.8,  85.99,     76,    2.0,    2.4,    3.3,   8.6,  10.1,   13.9
2019, 04, 04, 01,   16.3,  85.94,     77,    2.4,    2.8,    3.9,  10.3,  12.4,   16.7
2019, 04, 04, 02,   15.9,  85.93,     79,    2.7,    3.3,    4.5,  12.4,  15.0,   20.2
2019, 04, 04, 03,   15.4,  85.89,     81,    3.0,    3.7,    5.1,  13.8,  16.8,   22.3
2019, 04, 04, 04,   15.1,  85.90,     82,    3.4,    4.3,    5.9,  15.6,  19.0,   25.3
2019, 04, 04, 05,   15.0,  85.98,     82,    3.9,    5.0,    6.8,  19.2,  23.3,   30.6
2019, 04, 04, 06,   16.0,  86.05,     79,    4.2,    5.2,    7.0,  20.8,  25.3,   33.3
2019, 04, 04, 07,   17.9,  86.10,     74,    4.3,    5.3,    7.0,  22.7,  27.5,   36.1
2019, 04, 04, 08,   21.9,  86.14,     63,    4.8,    5.8,    7.6,  25.8,  31.4,   40.7
2019, 04, 04, 09,   24.6,  86.12,     55,    5.7,    6.7,    8.5,  31.8,  39.6,   51.2
2019, 04, 04, 10,   27.5,  86.10,     45,    7.1,    8.4,   10.4,  39.0,  49.4,   64.1
2019, 04, 04, 11,   27.7,  86.01,     40,    4.7,    5.5,    7.0,  29.4,  38.9,   52.0
2019, 04, 04, 12,   27.5,  85.91,     41,    4.9,    5.7,    7.2,  27.8,  37.6,   50.8
2019, 04, 04, 13,   28.6,  85.83,     35,    4.0,    4.6,    5.9,  22.2,  30.4,   41.8
2019, 04, 05, 16,   16.8,  85.79,     76,    3.0,    4.0,    4.4,  17.0,  21.3,   26.7
2019, 04, 05, 17,   16.6,  85.83,     78,    2.8,    3.7,    4.3,  15.8,  19.9,   25.3
2019, 04, 05, 18,   15.3,  85.86,     81,    4.5,    5.9,    7.1,  23.6,  30.5,   39.6
2019, 04, 05, 19,   14.4,  85.91,     82,    6.5,    8.2,    9.8,  39.2,  49.6,   63.2
2019, 04, 05, 20,   14.0,  85.99,     82,    5.8,    7.4,    8.9,  39.0,  47.5,   58.6
2019, 04, 05, 21,   14.1,  86.08,     81,    6.9,    8.6,   10.2,  64.6,  72.5,   85.3
2019, 04, 05, 22,   13.6,  86.01,     80,    4.3,    5.4,    6.2,  37.6,  43.3,   51.9
2019, 04, 05, 23,   13.8,  85.99,     79,    4.2,    5.1,    5.8,  30.1,  34.6,   41.5
2019, 04, 06, 00,   14.1,  86.04,     79,    4.3,    5.3,    6.2,  31.6,  36.5,   44.3
2019, 04, 06, 01,   13.8,  85.93,     82,    5.7,    7.1,    8.4,  40.7,  49.3,   61.3
2019, 04, 06, 02,   13.3,  85.86,     84,    7.0,    8.7,   10.5,  48.2,  56.1,   68.7
2019, 04, 06, 03,   13.2,  85.87,     82,    8.2,   10.4,   12.7,  58.0,  69.6,   86.9
2019, 04, 06, 04,   13.0,  85.91,     82,    7.5,    9.4,   11.4,  51.8,  62.4,   78.3
2019, 04, 06, 05,   13.2,  85.95,     80,    5.8,    7.4,    8.9,  43.2,  52.1,   65.2
2019, 04, 06, 06,   13.2,  86.00,     81,    5.3,    6.6,    8.0,  38.5,  46.6,   58.4
2019, 04, 06, 07,   13.5,  86.03,     81,    5.3,    6.7,    8.0,  38.3,  46.7,   58.4
2019, 04, 06, 08,   15.3,  86.11,     76,    3.9,    4.8,    5.6,  26.9,  32.8,   41.0
2019, 04, 06, 09,   19.3,  86.18,     63,    1.8,    2.2,    2.3,  13.7,  18.0,   23.3
2019, 04, 06, 10,   25.9,  86.23,     45,    0.1,    0.3,   -0.2,   4.9,   7.1,    8.8
2019, 04, 06, 11,   27.4,  86.23,     38,   -0.5,   -0.4,   -1.2,   1.8,   2.9,    3.2
2019, 04, 06, 12,   28.7,  86.20,     34,   -0.7,   -0.7,   -1.6,   0.9,   1.7,    1.4
2019, 04, 06, 13,   30.1,  86.17,     30,   -0.8,   -0.8,   -1.8,   0.4,   1.0,    0.5
2019, 04, 06, 14,   30.6,  86.12,     30,   -0.7,   -0.7,   -1.7,   0.7,   1.6,    1.3
2019, 04, 06, 15,   29.6,  86.08,     31,   -0.7,   -0.7,   -1.7,   0.8,   1.7,    1.5
2019, 04, 06, 16,   25.7,  85.99,     38,    0.9,    1.0,    1.2,   3.7,   4.9,    6.2
2019, 04, 06, 17,   25.8,  85.99,     39,    1.0,    1.2,    1.4,   4.1,   5.4,    6.8
2019, 04, 06, 18,   22.5,  85.97,     49,    1.8,    2.2,    2.6,   7.8,  10.2,   13.3
2019, 04, 06, 19,   20.5,  86.05,     57,    1.8,    2.0,    2.5,   7.4,   9.4,   12.3
2019, 04, 06, 20,   17.6,  86.04,     71,    2.2,    2.7,    3.5,   9.5,  12.0,   16.0
2019, 04, 06, 21,   17.9,  86.09,     67,    2.2,    2.7,    3.4,   9.3,  11.6,   15.2
2019, 04, 06, 22,   17.7,  86.09,     66,    2.8,    3.4,    4.2,  12.8,  16.1,   20.8
2019, 04, 06, 23,   17.0,  86.08,     67,    3.2,    3.8,    4.9,  15.4,  19.1,   24.7
2019, 04, 07, 00,   16.4,  86.09,     69,    2.8,    3.3,    4.2,  12.8,  16.0,   21.0
2019, 04, 07, 01,   15.4,  86.08,     74,    3.2,    3.9,    5.0,  14.6,  18.6,   24.6
2019, 04, 07, 02,   14.4,  86.08,     79,    3.4,    4.3,    5.5,  15.0,  19.2,   25.5
2019, 04, 07, 03,   14.3,  86.03,     79,    3.7,    4.5,    5.9,  15.2,  19.4,   25.8
2019, 04, 07, 04,   14.1,  86.04,     79,    3.5,    4.4,    5.6,  14.9,  19.0,   25.2
2019, 04, 07, 05,   13.5,  86.08,     81,    4.3,    5.3,    6.8,  18.7,  23.9,   31.5
2019, 04, 07, 06,   13.1,  86.12,     84,    5.1,    6.6,    8.4,  21.5,  27.6,   36.1
2019, 04, 07, 07,   14.0,  86.18,     82,    4.5,    5.8,    7.5,  17.7,  22.8,   30.0
2019, 04, 07, 08,   15.8,  86.25,     77,    3.9,    4.8,    6.1,  17.8,  23.9,   32.4
2019, 04, 07, 09,   18.9,  86.31,     66,    2.3,    2.7,    3.4,   9.1,  11.9,   16.1
2019, 04, 07, 10,   19.1,  86.33,     65,    2.6,    3.1,    3.8,  13.2,  17.5,   23.5
2019, 04, 07, 11,   22.5,  86.33,     56,    2.8,    3.2,    3.9,  14.7,  20.1,   27.3
2019, 04, 07, 12,   23.8,  86.25,     52,    2.7,    3.2,    3.7,  13.5,  18.4,   24.7
2019, 04, 07, 13,   24.7,  86.24,     50,    2.5,    3.0,    3.6,  12.4,  16.9,   22.8
2019, 04, 07, 14,   26.6,  86.22,     45,    2.1,    2.6,    3.1,  11.1,  15.3,   20.6
2019, 04, 07, 15,   27.1,  86.20,     43,    2.1,    2.6,    3.0,  10.6,  14.5,   19.3
2019, 04, 07, 16,   31.6,  86.21,     36,    1.6,    2.1,    2.3,   9.1,  12.9,   17.0
2019, 04, 07, 17,   29.1,  86.17,     39,    2.0,    2.4,    2.7,  10.9,  15.0,   20.0
2019, 04, 07, 18,   22.3,  86.07,     55,    3.0,    3.5,    4.3,  15.6,  20.9,   28.1
2019, 04, 07, 19,   20.3,  86.17,     64,    6.1,    7.5,    9.6,  34.6,  45.6,   61.2
2019, 04, 07, 20,   18.2,  86.23,     69,    5.0,    6.0,    7.5,  28.8,  37.8,   50.5
2019, 04, 07, 21,   13.8,  86.19,     82,    4.1,    5.1,    6.4,  18.9,  24.0,   31.5
2019, 04, 07, 22,   13.6,  86.15,     84,    6.4,    8.1,   10.4,  35.7,  46.3,   61.2
2019, 04, 07, 23,   13.9,  86.16,     83,    5.0,    6.5,    8.3,  24.0,  30.8,   40.4
2019, 04, 08, 00,   14.3,  86.21,     80,    3.5,    4.5,    5.8,  13.6,  17.7,   23.5
2019, 04, 08, 01,   14.3,  86.17,     79,    3.4,    4.3,    5.5,  15.5,  20.2,   26.9
2019, 04, 08, 02,   14.3,  86.18,     79,    3.6,    4.5,    5.7,  17.1,  22.0,   29.0
2019, 04, 08, 03,   14.3,  86.10,     79,    4.6,    5.8,    7.4,  29.3,  37.3,   48.6
2019, 04, 08, 04,   14.6,  86.17,     77,    4.5,    5.4,    7.0,  27.3,  34.3,   44.7
2019, 04, 08, 05,   12.8,  86.24,     83,    4.6,    5.8,    7.2,  21.1,  25.7,   32.7
2019, 04, 08, 06,   11.8,  86.31,     86,    5.0,    6.7,    8.6,  15.0,  18.6,   23.8
2019, 04, 08, 07,   11.5,  86.33,     87,    6.7,    9.1,   11.5,  19.0,  23.9,   30.8
2019, 04, 08, 08,   12.0,  86.35,     85,    6.3,    8.3,   10.6,  20.4,  25.3,   32.5
2019, 04, 08, 09,   12.3,  86.06,     85,    5.7,    7.4,    9.4,  20.5,  25.1,   32.1
2019, 04, 08, 10,   15.5,  86.12,     74,    2.7,    3.4,    4.3,   8.2,  10.3,   13.3
2019, 04, 08, 11,   22.0,  86.26,     56,    1.6,    2.0,    2.5,   7.9,   9.9,   12.8
2019, 04, 26, 11,   31.5,  86.12,     20,    2.5,    3.0,    3.9,  12.0,  15.3,   20.3
2019, 04, 26, 12,   33.5,  86.11,     17,    2.7,    3.3,    4.2,  13.6,  17.4,   22.9
2019, 04, 26, 13,   33.1,  86.04,     17,    2.1,    2.4,    3.2,  10.2,  13.0,   17.3
2019, 04, 26, 14,   32.5,  86.01,     15,    2.1,    2.5,    3.4,  10.1,  12.7,   16.9
2019, 04, 26, 15,   31.6,  85.99,     17,    1.5,    1.6,    2.3,   7.0,   8.5,   11.4
2019, 04, 26, 16,   31.1,  86.00,     19,    1.4,    1.6,    2.2,   6.9,   8.4,   11.2
2019, 04, 26, 17,   28.0,  85.98,     26,    2.1,    2.4,    3.2,   9.7,  11.9,   15.9
2019, 04, 26, 18,   22.5,  85.94,     36,    3.5,    4.1,    5.4,  16.1,  19.5,   25.8
2019, 04, 26, 19,   20.5,  85.97,     41,    6.9,    8.6,   11.7,  29.5,  38.1,   52.1
2019, 04, 26, 20,   18.3,  85.98,     41,    7.1,    8.8,   11.8,  30.6,  39.1,   53.2
2019, 04, 26, 21,   16.7,  85.98,     47,    7.5,    9.0,   11.7,  31.8,  39.4,   52.4
2019, 04, 26, 22,   15.3,  85.98,     52,    8.4,   10.0,   13.0,  37.7,  46.3,   60.6
2019, 04, 26, 23,   14.2,  85.97,     52,    7.1,    8.5,   11.1,  33.6,  40.6,   52.9
2019, 04, 27, 00,   13.4,  85.95,     54,    5.8,    6.8,    9.1,  27.6,  33.6,   44.4
2019, 04, 27, 01,   13.2,  85.94,     53,    4.6,    5.4,    7.4,  20.6,  25.2,   33.8
2019, 04, 27, 02,   12.5,  85.92,     55,    4.4,    5.1,    6.8,  18.1,  21.7,   28.9
2019, 04, 27, 03,   11.6,  85.91,     59,    5.7,    6.7,    8.9,  26.2,  31.4,   41.3
2019, 04, 27, 04,   11.1,  85.92,     61,    6.0,    7.0,    9.3,  28.8,  34.7,   45.9
2019, 04, 27, 05,   11.1,  85.94,     61,    5.4,    6.3,    8.5,  26.0,  31.6,   42.1
2019, 04, 27, 06,   11.4,  86.00,     61,    3.7,    4.3,    5.9,  16.7,  20.0,   27.1
2019, 04, 27, 07,   15.3,  86.09,     55,    3.0,    3.4,    4.8,  13.0,  15.3,   20.7
2019, 04, 27, 08,   22.7,  86.23,     42,    2.2,    2.5,    3.6,   9.6,  11.5,   15.6
2019, 04, 27, 09,   27.5,  86.32,     30,    1.4,    1.6,    2.3,   5.8,   6.9,    9.5
2019, 04, 27, 10,   29.9,  86.37,     26,    1.5,    1.5,    2.3,   6.4,   7.4,   10.0
2019, 04, 27, 11,   33.9,  86.39,     19,    1.8,    2.6,    3.2,   8.6,  11.5,   14.6
2019, 04, 27, 12,   32.8,  86.33,     17,    2.1,    2.8,    3.3,   9.2,  12.4,   15.9
2019, 04, 27, 13,   32.3,  86.27,     16,    2.1,    2.7,    3.4,   8.5,  11.7,   15.4
2019, 04, 27, 14,   32.5,  86.24,     16,    2.3,    3.0,    3.9,   9.7,  13.4,   17.8
2019, 04, 27, 15,   34.2,  86.25,     14,    2.4,    3.3,    4.2,  10.2,  14.3,   19.2
2019, 04, 27, 16,   33.4,  86.24,     15,    2.6,    3.5,    4.4,  10.9,  15.3,   20.6
2019, 04, 27, 17,   28.8,  86.20,     21,    3.3,    4.4,    5.8,  13.8,  19.1,   25.8
2019, 04, 27, 18,   22.9,  86.18,     32,    4.1,    5.4,    7.2,  19.6,  26.8,   36.4
2019, 04, 27, 19,   21.0,  86.22,     36,    5.9,    7.6,   10.3,  25.2,  34.4,   47.3
2019, 05, 04, 17,   26.6,  86.16,     22,    9.3,   11.2,   14.2,  41.3,  59.9,   85.1
2019, 05, 04, 18,   25.5,  86.15,     24,    9.8,   11.9,   14.9,  42.5,  61.8,   87.6
2019, 05, 04, 19,   24.1,  86.17,     27,   12.0,   14.4,   18.0,  54.8,  78.9,  111.3
2019, 05, 04, 20,   22.6,  86.20,     31,   15.4,   19.1,   24.3,  70.7,  99.9,  139.8
2019, 05, 04, 21,   20.9,  86.22,     35,   18.3,   22.5,   28.9,  95.4, 133.6,  186.4
2019, 05, 04, 22,   19.7,  86.26,     37,   20.5,   25.1,   32.1, 101.3, 141.0,  195.6
2019, 05, 04, 23,   19.7,  86.28,     34,   14.7,   17.7,   22.4,  70.6,  98.4,  137.0
2019, 05, 05, 00,   19.2,  86.26,     33,   10.9,   12.8,   16.1,  51.9,  73.4,  103.3
2019, 05, 05, 01,   18.5,  86.26,     35,    9.7,   11.4,   14.4,  45.3,  64.0,   90.0
2019, 05, 05, 02,   17.3,  86.24,     39,    9.0,   10.4,   13.0,  42.3,  59.2,   83.2
2019, 05, 05, 03,   16.5,  86.24,     44,    8.1,    9.5,   11.8,  39.6,  55.1,   77.1
2019, 05, 05, 04,   16.0,  86.25,     47,    7.3,    8.4,   10.8,  36.3,  50.2,   70.3
2019, 05, 05, 05,   15.8,  86.30,     51,    6.9,    7.9,   10.1,  34.4,  47.1,   65.4
2019, 05, 05, 06,   14.9,  86.34,     54,    7.7,    8.9,   11.3,  39.8,  54.4,   75.2
2019, 05, 05, 07,   18.5,  86.43,     49,    9.3,   10.9,   13.8,  47.5,  65.0,   89.8
2019, 05, 05, 08,   24.7,  86.58,     38,   10.1,   11.9,   15.1,  51.1,  69.8,   95.6
2019, 05, 05, 09,   26.9,  86.66,     34,    9.3,   10.9,   13.6,  49.0,  65.8,   88.8
2019, 05, 05, 10,   28.9,  86.68,     32,    4.8,    5.7,    7.2,  26.9,  36.5,   48.8
2019, 05, 05, 11,   31.6,  86.65,     27,    3.7,    4.5,    5.6,  21.5,  29.1,   38.5
2019, 05, 05, 12,   32.3,  86.60,     23,    3.2,    3.8,    4.6,  18.7,  25.0,   32.7
2019, 05, 05, 13,   33.0,  86.55,     20,    3.0,    3.7,    4.4,  17.0,  23.3,   30.6
2019, 05, 05, 14,   33.8,  86.51,     15,    2.9,    3.6,    4.4,  15.2,  21.0,   27.9
2019, 05, 05, 15,   33.8,  86.50,     15,    3.0,    3.7,    4.5,  16.0,  22.4,   30.0
2019, 05, 05, 16,   33.1,  86.50,     15,    2.8,    3.5,    4.3,  16.3,  22.6,   30.3
2019, 05, 05, 17,   28.5,  86.50,     19,    2.4,    3.0,    3.7,  14.6,  19.0,   25.7
2019, 05, 05, 18,   25.5,  86.43,     23,    3.4,    4.1,    5.1,  18.0,  23.7,   32.1
2019, 05, 05, 19,   22.4,  86.45,     32,    7.7,    9.1,   11.5,  39.4,  50.8,   67.4
2019, 05, 05, 20,   20.4,  86.48,     39,   11.3,   13.2,   16.3,  61.5,  77.9,  101.6
2019, 05, 05, 21,   19.1,  86.51,     45,    7.8,    9.1,   11.4,  45.0,  58.2,   77.7
2019, 05, 05, 22,   18.9,  86.57,     46,    6.2,    7.2,    9.1,  37.7,  49.1,   66.0
2019, 05, 05, 23,   18.2,  86.57,     50,    6.2,    7.3,    9.3,  39.7,  51.6,   69.0
2019, 05, 06, 00,   17.2,  86.54,     55,    6.6,    7.7,    9.7,  42.6,  54.9,   72.9
2019, 05, 06, 01,   16.5,  86.51,     59,    6.1,    7.1,    9.1,  41.3,  53.0,   70.2
2019, 05, 06, 02,   15.8,  86.47,     61,    6.3,    7.4,    9.5,  43.0,  55.3,   73.3
2019, 05, 06, 03,   14.4,  86.43,     66,    6.3,    7.3,    9.4,  44.3,  56.2,   74.3
2019, 05, 06, 04,   13.9,  86.43,     68,    6.3,    7.3,    9.4,  45.0,  57.1,   75.2
2019, 05, 06, 05,   13.0,  86.44,     70,    6.7,    7.9,   10.2,  47.9,  60.7,   80.1
2019, 05, 06, 06,   12.7,  86.47,     72,    7.0,    8.3,   10.6,  49.1,  61.9,   81.3
2019, 05, 06, 07,   17.0,  86.54,     65,    6.3,    7.6,    9.8,  42.2,  53.4,   70.4
2019, 05, 06, 08,   26.5,  86.66,     44,    4.7,    5.6,    7.2,  28.2,  36.2,   47.9
2019, 05, 06, 09,   34.5,  86.77,     27,    3.8,    4.7,    5.7,  22.4,  29.3,   38.3
2019, 05, 06, 10,   33.2,  86.77,     24,    5.0,    6.1,    7.4,  28.1,  35.9,   46.4
2019, 05, 06, 11,   33.1,  86.71,     20,    3.7,    4.5,    5.6,  22.2,  29.0,   38.1
2019, 05, 06, 12,   36.0,  86.70,     15,    3.3,    4.0,    4.6,  18.8,  24.8,   32.4
2019, 05, 06, 13,   38.4,  86.66,     11,    2.8,    3.5,    4.0,  16.7,  22.2,   29.0
2019, 05, 06, 14,   38.2,  86.63,     10,    3.4,    4.2,    4.9,  18.7,  24.3,   31.6
2019, 05, 06, 15,   38.1,  86.61,      7,    3.4,    4.0,    4.7,  18.8,  23.8,   30.7
2019, 05, 06, 16,   36.3,  86.59,      8,    3.7,    4.4,    5.1,  19.1,  24.1,   30.9
2019, 05, 06, 17,   28.0,  86.53,     22,    4.9,    5.5,    6.8,  22.7,  28.4,   37.3
2019, 05, 06, 18,   24.5,  86.47,     29,    5.5,    6.4,    8.0,  26.4,  33.4,   43.8
2019, 05, 06, 19,   22.7,  86.50,     34,    6.6,    7.7,    9.8,  31.6,  39.7,   52.3
2019, 05, 06, 20,   21.6,  86.56,     37,    8.9,   10.3,   13.0,  44.8,  55.9,   72.6
2019, 05, 06, 21,   20.1,  86.59,     41,   11.6,   13.9,   17.9,  59.7,  75.7,   99.3
2019, 05, 06, 22,   18.4,  86.61,     44,   10.1,   12.1,   15.6,  54.2,  69.0,   91.0
2019, 05, 06, 23,   17.5,  86.62,     45,    9.0,   10.9,   14.0,  47.0,  61.1,   81.5
2019, 05, 07, 00,   17.1,  86.63,     42,    8.6,   10.1,   12.8,  44.0,  57.1,   76.7
2019, 05, 07, 01,   16.9,  86.63,     43,    8.5,    9.9,   12.6,  43.4,  57.1,   77.3
2019, 05, 07, 02,   15.6,  86.60,     49,   11.3,   13.5,   17.0,  60.5,  78.9,  105.8
2019, 05, 07, 03,   14.9,  86.56,     52,   15.2,   17.7,   22.4,  85.1, 109.7,  146.4
2019, 05, 07, 04,   14.4,  86.55,     55,   14.6,   17.2,   21.7,  84.6, 112.0,  151.4
2019, 05, 07, 05,   13.7,  86.58,     59,   14.8,   17.4,   21.9,  89.0, 119.1,  162.0
2019, 05, 07, 06,   13.2,  86.65,     63,   15.8,   18.4,   23.2,  98.1, 130.4,  176.7
2019, 05, 07, 07,   17.0,  86.72,     59,   15.5,   18.3,   23.4,  96.2, 128.0,  173.1
2019, 05, 07, 08,   24.5,  86.83,     43,   11.8,   14.0,   17.6,  69.2,  93.3,  125.6
2019, 05, 07, 09,   26.9,  86.90,     37,   10.2,   11.9,   14.8,  61.3,  82.3,  109.9
2019, 05, 07, 10,   28.6,  86.91,     33,    7.5,    8.9,   11.2,  46.2,  63.9,   86.6
2019, 05, 07, 11,   29.4,  86.84,     30,    7.0,    8.2,   10.3,  41.7,  58.7,   80.2
2019, 05, 07, 12,   31.4,  86.76,     25,    6.1,    7.2,    9.1,  36.5,  51.9,   70.9
2019, 05, 07, 13,   31.5,  86.68,     21,    6.5,    7.7,    9.6,  39.3,  56.4,   77.5
2019, 05, 07, 14,   31.5,  86.61,     18,    5.5,    6.6,    8.4,  34.3,  48.8,   67.2
2019, 05, 07, 15,   30.5,  86.56,     19,    5.8,    6.9,    8.6,  35.4,  49.5,   66.9
2019, 05, 07, 16,   29.0,  86.53,     21,    5.2,    6.2,    7.8,  31.4,  43.2,   58.3
2019, 05, 07, 17,   23.3,  86.49,     30,    6.0,    7.1,    8.9,  37.2,  49.9,   67.2
2019, 05, 07, 18,   20.8,  86.43,     36,    8.0,    9.2,   11.6,  50.7,  67.2,   89.7
2019, 05, 07, 19,   19.0,  86.42,     42,    9.9,   11.5,   14.5,  66.0,  87.2,  116.0
2019, 05, 07, 20,   18.1,  86.46,     45,   12.2,   14.2,   17.8,  81.9, 107.5,  142.5
2019, 05, 07, 21,   17.4,  86.46,     48,    9.5,   11.1,   14.1,  70.7,  94.5,  126.9
2019, 05, 07, 22,   16.4,  86.46,     55,    9.4,   11.0,   14.0,  78.0, 104.0,  138.8
2019, 05, 07, 23,   15.4,  86.41,     62,   10.6,   12.3,   15.8,  95.6, 125.4,  165.4
2019, 05, 08, 00,   14.7,  86.36,     68,   11.8,   13.8,   17.6, 109.5, 142.0,  186.5
2019, 05, 08, 01,   14.0,  86.33,     73,   14.2,   16.7,   21.3, 133.7, 170.9,  222.1
2019, 05, 08, 02,   13.5,  86.31,     76,   14.5,   17.1,   21.9, 142.9, 183.0,  238.2
2019, 05, 08, 03,   13.0,  86.27,     79,   15.5,   18.4,   23.7, 157.8, 201.3,  261.0
2019, 05, 08, 04,   12.4,  86.25,     81,   17.4,   21.0,   26.9, 180.6, 229.6,  295.8
2019, 05, 08, 05,   12.1,  86.25,     82,   18.1,   21.8,   28.1, 190.7, 241.9,  311.6
2019, 05, 08, 06,   11.9,  86.29,     83,   18.8,   22.9,   29.5, 198.7, 252.2,  325.1
2019, 05, 08, 07,   13.6,  86.35,     79,   16.2,   19.6,   25.2, 166.4, 214.7,  279.5
2019, 05, 08, 08,   15.5,  86.41,     73,   12.6,   15.0,   19.4, 126.6, 166.2,  219.4
2019, 05, 08, 09,   18.7,  86.45,     63,   10.0,   11.7,   15.1,  90.5, 120.3,  160.0
2019, 05, 08, 10,   23.3,  86.46,     45,    6.3,    7.3,    9.3,  52.1,  70.9,   95.0
2019, 05, 08, 11,   26.2,  86.40,     35,    5.0,    5.7,    7.2,  38.1,  52.1,   70.4
2019, 05, 08, 12,   25.7,  86.35,     33,    4.4,    5.1,    6.6,  32.8,  45.1,   60.9
2019, 05, 08, 13,   21.0,  86.25,     43,    6.0,    6.9,    8.9,  46.4,  62.2,   83.0
2019, 05, 08, 14,   19.1,  86.18,     51,    9.0,   10.3,   13.2,  75.0,  97.7,  128.3
2019, 05, 08, 15,   20.2,  86.12,     48,    8.6,   10.1,   12.9,  68.7,  91.0,  120.2
2019, 05, 08, 16,   21.4,  86.06,     47,    8.6,   10.1,   12.9,  69.7,  92.5,  122.5
2019, 05, 08, 17,   19.4,  86.07,     50,    7.5,    9.0,   11.4,  58.8,  78.3,  103.7
2019, 05, 08, 18,   17.0,  86.01,     57,    9.8,   11.5,   14.7,  75.7,  99.5,  131.3
2019, 05, 08, 19,   16.4,  86.00,     60,   10.0,   11.6,   14.8,  81.2, 105.0,  137.3
2019, 05, 08, 20,   16.1,  86.01,     62,   10.2,   11.8,   15.2,  84.3, 109.1,  143.3
2019, 05, 08, 21,   15.5,  86.01,     64,   15.4,   18.6,   23.9, 118.1, 153.1,  200.4
2019, 05, 08, 22,   13.9,  86.00,     70,   17.2,   20.9,   27.0, 140.0, 178.7,  232.0
2019, 05, 08, 23,   14.2,  86.01,     69,   11.9,   13.9,   17.6,  99.6, 127.0,  164.8
2019, 05, 09, 00,   13.8,  86.02,     70,   13.6,   16.2,   20.6, 113.8, 144.3,  186.3
2019, 05, 09, 01,   13.4,  85.99,     73,   12.2,   14.4,   18.5, 108.1, 137.5,  177.9
2019, 05, 09, 02,   12.5,  85.95,     74,   13.6,   16.3,   20.9, 120.9, 152.5,  196.4
2019, 05, 09, 03,   11.4,  85.89,     78,   13.8,   16.5,   21.2, 128.4, 161.3,  207.1
2019, 05, 09, 04,   11.7,  85.85,     77,   13.7,   16.6,   21.4, 128.0, 161.0,  207.1
2019, 05, 09, 05,   11.6,  85.89,     76,   12.8,   15.5,   19.9, 119.2, 150.4,  193.7
2019, 05, 09, 06,   12.1,  85.94,     73,   14.7,   17.7,   22.7, 125.5, 157.6,  202.4
2019, 05, 09, 07,   14.6,  86.01,     69,   13.3,   15.9,   20.5, 114.9, 143.6,  184.3
2019, 05, 09, 08,   20.7,  86.15,     55,    9.7,   11.5,   14.9,  74.3,  95.3,  123.6
2019, 05, 09, 09,   26.1,  86.25,     39,    5.2,    6.0,    7.7,  36.6,  47.4,   61.8
2019, 05, 09, 10,   25.8,  86.24,     35,    4.5,    5.1,    6.4,  29.4,  38.0,   49.7
2019, 05, 09, 11,   25.2,  86.20,     35,    3.9,    4.4,    5.5,  25.6,  33.8,   45.0
2019, 05, 09, 12,   25.7,  86.16,     33,    3.3,    3.8,    4.9,  21.8,  29.3,   39.7
2019, 05, 09, 13,   25.3,  86.10,     32,    4.2,    4.9,    6.2,  27.5,  37.6,   50.6
2019, 05, 09, 14,   26.2,  86.09,     30,    4.5,    5.3,    6.7,  27.3,  37.3,   50.2
2019, 05, 09, 15,   26.1,  86.08,     29,    4.1,    5.0,    6.4,  25.5,  35.1,   47.6
2019, 05, 09, 16,   25.5,  86.10,     32,    4.5,    5.2,    6.6,  26.5,  35.7,   48.1
2019, 05, 09, 17,   22.1,  86.12,     38,    5.2,    6.0,    7.6,  28.7,  38.0,   51.4
2019, 05, 09, 18,   20.7,  86.10,     42,    6.6,    7.8,   10.1,  36.5,  48.0,   64.5
2019, 05, 09, 19,   20.2,  86.14,     44,    7.8,    9.2,   11.9,  41.8,  54.5,   73.2
2019, 05, 09, 20,   17.1,  86.16,     38,    7.8,    9.1,   11.3,  38.4,  47.1,   61.0
2019, 05, 09, 21,   15.1,  86.17,     37,    6.0,    7.0,    8.8,  30.2,  36.1,   46.1
2019, 05, 09, 22,   14.0,  86.16,     37,    8.2,    9.4,   11.6,  43.3,  51.2,   63.9
2019, 05, 09, 23,   13.1,  86.15,     40,    5.2,    5.9,    7.5,  28.3,  32.9,   41.4
2019, 05, 10, 16,   26.1,  86.31,     29,    4.2,    4.8,    6.5,  23.3,  30.5,   41.3
2019, 05, 10, 17,   23.1,  86.30,     34,    5.5,    6.5,    8.6,  30.0,  38.9,   51.9
2019, 05, 10, 18,   20.2,  86.30,     41,    7.5,    8.8,   11.6,  39.8,  51.4,   68.7
2019, 05, 10, 19,   19.5,  86.34,     43,    8.5,    9.8,   12.9,  43.9,  56.3,   74.9
2019, 05, 10, 20,   18.8,  86.36,     47,   11.2,   13.6,   17.9,  61.0,  79.8,  107.3
2019, 05, 10, 21,   18.5,  86.37,     46,    8.7,   10.2,   13.5,  47.0,  61.1,   82.4
2019, 05, 10, 22,   17.7,  86.35,     49,   12.0,   14.3,   18.7,  62.5,  80.6,  107.4
2019, 05, 10, 23,   16.2,  86.34,     55,   10.9,   12.6,   16.3,  60.2,  75.5,   99.3
2019, 05, 11, 00,   15.6,  86.31,     60,    8.5,    9.7,   12.8,  51.4,  64.0,   84.1
2019, 05, 11, 01,   14.7,  86.30,     63,   11.4,   13.6,   17.9,  67.8,  86.0,  113.7
2019, 05, 11, 02,   13.9,  86.28,     66,    9.6,   11.1,   14.6,  61.4,  76.1,   99.4
2019, 05, 11, 03,   12.7,  86.26,     70,   10.4,   12.4,   16.2,  67.5,  84.2,  110.0
2019, 05, 11, 04,   12.0,  86.28,     74,    9.7,   11.3,   14.9,  66.3,  81.0,  104.7
2019, 05, 11, 05,   10.8,  86.30,     75,   10.4,   12.2,   15.9,  71.5,  88.0,  114.1
2019, 05, 11, 06,   10.4,  86.34,     79,   10.6,   12.3,   16.1,  71.8,  87.5,  112.4
2019, 05, 11, 07,   13.0,  86.40,     73,   10.1,   12.0,   15.6,  69.5,  84.8,  108.9
2019, 05, 11, 08,   22.1,  86.55,     53,    7.7,    9.0,   11.8,  45.5,  55.7,   71.7
2019, 05, 11, 09,   28.0,  86.65,     37,   10.7,   12.7,   16.4,  61.1,  77.2,   99.7
2019, 05, 11, 10,   28.2,  86.65,     35,   11.9,   14.2,   18.2,  70.9,  89.6,  115.1
2019, 05, 11, 11,   27.0,  86.58,     35,   10.2,   12.0,   15.5,  57.9,  74.5,   97.9
2019, 05, 11, 12,   27.7,  86.52,     32,    7.2,    8.7,   11.4,  42.0,  55.8,   74.9
2019, 05, 11, 13,   29.9,  86.46,     25,    5.6,    6.8,    9.1,  29.2,  39.6,   53.9
2019, 05, 11, 14,   31.9,  86.48,     22,    5.9,    7.3,    9.6,  33.1,  45.1,   60.9